FW4307 Weather Reports


time (UTC)temp
C
wind
direction
speed
KPH
gust
KPH
rain 1hr
cm
rain 24hr
cm
rain mn
cm
humidity
%
barometer
mb
20260506193540 19 243 9.7 16.1 0.00 0.08 0.03 84 1021.3
20260506193040 20 255 9.7 16.1 0.00 0.08 0.03 85 1021.5
20260506192540 19 277 9.7 17.7 0.00 0.08 0.03 84 1021.5
20260506192040 19 157 8.0 17.7 0.00 0.08 0.03 83 1021.5
20260506191540 19 202 8.0 16.1 0.00 0.08 0.03 83 1021.6
20260506191039 20 275 3.2 8.0 0.00 0.08 0.03 83 1021.5
20260506190539 20 202 4.8 8.0 0.00 0.08 0.03 83 1021.6
20260506190046 19 268 1.6 12.9 0.00 0.08 0.03 84 1021.7
20260506185536 19 217 4.8 12.9 0.00 0.10 0.03 84 1021.6
20260506185036 19 245 3.2 9.7 0.00 0.10 0.03 84 1021.6
20260506184543 19 206 0.0 9.7 0.00 0.10 0.03 83 1021.7
20260506184035 19 175 4.8 9.7 0.00 0.10 0.03 84 1021.7
20260506183535 18 203 0.0 6.4 0.00 0.10 0.03 83 1021.7
20260506183035 18 232 0.0 8.0 0.00 0.10 0.03 83 1021.7
20260506182534 18 211 3.2 8.0 0.00 0.10 0.03 84 1021.7
20260506182034 18 143 0.0 6.4 0.00 0.10 0.03 83 1021.7
20260506181534 18 238 0.0 9.7 0.00 0.10 0.03 83 1021.7
20260506181034 18 181 1.6 9.7 0.00 0.10 0.03 83 1021.7
20260506180533 18 232 4.8 9.7 0.00 0.10 0.03 82 1021.7
20260506180035 18 183 0.0 4.8 0.00 0.10 0.03 82 1021.7
20260506175532 18 183 0.0 8.0 0.00 0.13 0.03 81 1021.6
20260506175032 19 199 3.2 8.0 0.00 0.13 0.03 82 1021.6
20260506174532 18 46 0.0 6.4 0.00 0.13 0.03 81 1021.5
20260506174031 18 336 3.2 8.0 0.00 0.13 0.03 81 1021.6
20260506173530 18 263 1.6 6.4 0.00 0.13 0.03 84 1021.7
20260506173036 18 121 0.0 4.8 0.00 0.13 0.03 85 1021.7
20260506172527 17 328 0.0 8.0 0.00 0.13 0.03 86 1021.6
20260506172026 17 272 3.2 8.0 0.00 0.13 0.03 86 1021.7
20260506171525 17 296 3.2 6.4 0.00 0.13 0.03 86 1021.7
20260506171025 17 292 0.0 6.4 0.00 0.13 0.03 86 1021.7
20260506170526 16 243 1.6 8.0 0.00 0.13 0.03 86 1021.8
20260506170023 16 279 1.6 9.7 0.00 0.13 0.03 87 1021.8
20260506165522 16 236 3.2 9.7 0.00 0.13 0.03 87 1021.8
20260506165022 16 215 1.6 8.0 0.00 0.13 0.03 87 1021.8
20260506164522 16 266 0.0 8.0 0.00 0.13 0.03 86 1021.9
20260506164022 16 227 1.6 12.9 0.00 0.13 0.03 86 1021.9
20260506163522 16 238 6.4 12.9 0.00 0.13 0.03 86 1021.9
20260506163037 16 188 1.6 8.0 0.00 0.13 0.03 87 1022.0
20260506162519 16 58 0.0 3.2 0.00 0.13 0.03 87 1021.9
20260506162019 16 355 0.0 6.4 0.00 0.13 0.03 89 1021.9
20260506161617 15 298 3.2 6.4 0.00 0.13 0.03 88 1021.9
20260506161015 15 213 0.0 3.2 0.00 0.13 0.03 90 1021.8
20260506160517 15 299 0.0 6.4 0.00 0.13 0.03 90 1021.9
20260506160013 15 299 0.0 9.7 0.00 0.13 0.03 90 1022.0
20260506155512 15 260 4.8 9.7 0.00 0.15 0.03 90 1022.0
20260506155010 14 283 0.0 4.8 0.00 0.15 0.03 91 1021.9
20260506154526 14 254 1.6 4.8 0.00 0.15 0.03 92 1021.9
20260506154008 13 288 0.0 4.8 0.00 0.15 0.03 92 1021.9
20260506153506 13 294 1.6 4.8 0.00 0.15 0.03 92 1021.9
20260506153006 13 285 1.6 4.8 0.00 0.15 0.03 92 1021.9
20260506152505 13 301 1.6 4.8 0.00 0.15 0.03 92 1021.8
20260506152009 13 292 1.6 4.8 0.00 0.15 0.03 92 1021.8
20260506151504 13 298 0.0 4.8 0.00 0.15 0.03 93 1021.8
20260506151004 13 260 1.6 4.8 0.00 0.15 0.03 93 1021.8
20260506150504 13 334 1.6 4.8 0.00 0.15 0.03 93 1021.8
20260506150006 13 298 1.6 4.8 0.00 0.15 0.03 94 1021.8
20260506145503 12 260 1.6 4.8 0.00 0.18 0.03 94 1021.8
20260506145001 12 279 0.0 3.2 0.00 0.18 0.03 94 1021.8
20260506144501 12 284 0.0 3.2 0.00 0.18 0.03 94 1021.8
20260506144100 12 284 0.0 3.2 0.00 0.18 0.03 94 1021.8
20260506143559 12 276 0.0 4.8 0.00 0.18 0.03 94 1021.6
20260506143058 12 280 0.0 4.8 0.00 0.18 0.03 94 1021.7
20260506142558 12 280 1.6 4.8 0.00 0.18 0.03 94 1021.6
20260506142057 12 265 0.0 4.8 0.00 0.18 0.03 94 1021.6
20260506141600 12 260 0.0 4.8 0.00 0.18 0.03 94 1021.6
20260506141057 12 267 0.0 3.2 0.00 0.18 0.03 94 1021.6
20260506140558 12 267 0.0 3.2 0.00 0.18 0.03 94 1021.5
20260506140057 12 263 0.0 3.2 0.00 0.18 0.03 94 1021.5
20260506135554 12 263 0.0 3.2 0.00 0.20 0.03 94 1021.4
20260506135054 12 263 0.0 0.0 0.00 0.20 0.03 94 1021.4
20260506134554 12 263 0.0 3.2 0.00 0.20 0.03 94 1021.4
20260506134054 12 263 1.6 3.2 0.00 0.20 0.03 94 1021.4
20260506133554 12 263 0.0 3.2 0.00 0.20 0.03 94 1021.4
20260506133054 12 263 0.0 0.0 0.00 0.20 0.03 94 1021.3
20260506132554 12 263 0.0 3.2 0.00 0.20 0.03 94 1021.4
20260506132053 12 263 0.0 3.2 0.00 0.20 0.03 94 1021.3
20260506131556 12 263 1.6 3.2 0.00 0.20 0.03 94 1021.2
20260506131052 12 263 0.0 0.0 0.00 0.20 0.03 94 1021.1
20260506130556 12 263 0.0 0.0 0.00 0.20 0.03 94 1021.1
20260506130053 12 263 0.0 1.6 0.00 0.20 0.03 94 1021.1
20260506125550 12 263 0.0 1.6 0.00 0.25 0.03 94 1021.2
20260506125053 12 263 0.0 3.2 0.00 0.25 0.03 93 1021.2
20260506124550 12 263 0.0 3.2 0.00 0.25 0.03 93 1021.1
20260506124049 12 263 0.0 3.2 0.00 0.25 0.03 93 1021.1
20260506123549 12 263 0.0 4.8 0.00 0.25 0.03 93 1021.1
20260506123052 12 263 1.6 3.2 0.00 0.25 0.03 93 1021.0
20260506122549 12 263 0.0 3.2 0.00 0.25 0.03 93 1021.0
20260506122049 12 263 0.0 3.2 0.00 0.25 0.03 93 1021.0
20260506121559 12 263 0.0 1.6 0.00 0.25 0.03 93 1021.0
20260506121047 12 263 0.0 3.2 0.00 0.25 0.03 93 1020.9
20260506120547 12 263 0.0 3.2 0.00 0.25 0.03 93 1020.8
20260506120046 12 261 0.0 3.2 0.00 0.25 0.03 93 1020.9
20260506115546 12 269 1.6 3.2 0.00 0.30 0.03 93 1020.8
20260506115045 12 273 0.0 4.8 0.00 0.30 0.03 93 1020.8
20260506114544 12 284 1.6 4.8 0.00 0.30 0.03 93 1020.8
20260506114044 12 285 0.0 4.8 0.00 0.30 0.03 93 1020.7
20260506113545 12 291 0.0 4.8 0.00 0.30 0.03 93 1020.7
20260506113044 12 290 0.0 4.8 0.00 0.30 0.03 93 1020.6
20260506112545 12 281 1.6 4.8 0.00 0.30 0.03 93 1020.5
20260506112043 12 257 0.0 3.2 0.00 0.30 0.03 93 1020.5
20260506111543 12 257 0.0 3.2 0.00 0.30 0.03 93 1020.5
20260506111042 12 252 0.0 4.8 0.00 0.30 0.03 93 1020.5
20260506110542 12 240 0.0 4.8 0.00 0.30 0.03 93 1020.5
20260506110043 12 278 0.0 3.2 0.00 0.30 0.03 93 1020.5
20260506105541 12 227 0.0 1.6 0.00 0.36 0.03 93 1020.5
20260506105043 12 227 0.0 1.6 0.00 0.36 0.03 93 1020.4
20260506104540 12 227 0.0 1.6 0.00 0.36 0.03 93 1020.4
20260506104040 12 227 0.0 1.6 0.00 0.36 0.03 93 1020.3
20260506103540 12 227 0.0 0.0 0.00 0.36 0.03 93 1020.4
20260506103040 12 227 0.0 0.0 0.00 0.36 0.03 93 1020.3
20260506102540 12 227 0.0 0.0 0.00 0.36 0.03 93 1020.4
20260506102044 12 227 0.0 0.0 0.00 0.36 0.03 93 1020.3
20260506101539 12 227 0.0 0.0 0.00 0.36 0.03 93 1020.2
20260506101039 12 227 0.0 0.0 0.00 0.36 0.03 93 1020.2
20260506100539 12 227 0.0 1.6 0.00 0.36 0.03 93 1020.3
20260506100039 12 227 0.0 3.2 0.00 0.36 0.03 93 1020.3
20260506095538 12 219 0.0 0.0 0.00 0.41 0.03 93 1020.2
20260506095038 12 286 0.0 0.0 0.00 0.41 0.03 93 1020.2
20260506094538 12 286 0.0 0.0 0.00 0.41 0.03 93 1020.2
20260506094037 12 286 0.0 0.0 0.00 0.41 0.03 93 1020.3
20260506093537 12 286 0.0 0.0 0.00 0.41 0.03 93 1020.3
20260506093037 12 286 0.0 0.0 0.00 0.41 0.03 93 1020.2
20260506092537 12 286 0.0 0.0 0.00 0.41 0.03 93 1020.3
20260506092037 12 286 0.0 0.0 0.00 0.41 0.03 93 1020.3
20260506091537 12 286 0.0 0.0 0.00 0.41 0.03 93 1020.3
20260506091039 12 286 0.0 0.0 0.00 0.41 0.03 93 1020.3
20260506090536 12 286 0.0 0.0 0.00 0.41 0.03 93 1020.3
20260506090035 12 286 0.0 0.0 0.00 0.41 0.03 93 1020.4
20260506085535 12 286 0.0 0.0 0.00 0.46 0.03 93 1020.4
20260506085035 12 286 0.0 0.0 0.00 0.46 0.03 93 1020.3
20260506084542 12 286 0.0 0.0 0.00 0.46 0.03 93 1020.3
20260506084035 12 286 0.0 0.0 0.00 0.46 0.03 93 1020.4
20260506083538 12 286 0.0 0.0 0.00 0.46 0.03 93 1020.4
20260506083035 12 286 0.0 0.0 0.00 0.46 0.03 92 1020.4
20260506082534 12 286 0.0 0.0 0.00 0.46 0.03 92 1020.4
20260506082033 12 286 0.0 0.0 0.00 0.46 0.03 92 1020.4
20260506081540 12 286 0.0 0.0 0.00 0.46 0.03 92 1020.4
20260506081033 12 279 0.0 0.0 0.00 0.46 0.03 92 1020.4
20260506080535 12 279 0.0 4.8 0.00 0.46 0.03 92 1020.4
20260506073029 12 284 0.0 0.0 0.03 0.48 0.03 92 1020.1
20260506072530 12 284 0.0 0.0 0.03 0.48 0.03 92 1019.9
20260506072029 12 284 0.0 0.0 0.03 0.48 0.03 92 1019.9
20260506071529 12 284 0.0 0.0 0.03 0.48 0.03 92 1019.8
20260506071027 12 284 0.0 1.6 0.03 0.48 0.03 92 1019.7
20260506070528 12 284 0.0 6.4 0.03 0.48 0.03 92 1019.7
20260506062023 12 303 0.0 6.4 0.00 0.51 0.46 92 1019.6
20260506061526 12 240 3.2 6.4 0.00 0.51 0.46 92 1019.5
20260506061026 12 219 1.6 4.8 0.00 0.51 0.46 92 1019.6
20260506060523 12 250 1.6 4.8 0.00 0.51 0.46 92 1019.6
20260506051018 12 226 0.0 3.2 0.00 0.53 0.46 91 1019.3
20260506050520 12 226 0.0 4.8 0.00 0.53 0.46 91 1019.3
20260506045016 12 236 1.6 6.4 0.03 0.61 0.46 91 1019.2
20260506044518 12 218 3.2 6.4 0.03 0.61 0.46 91 1019.1
20260506044015 12 240 1.6 6.4 0.03 0.61 0.46 91 1019.1
20260506043518 12 242 1.6 6.4 0.03 0.61 0.46 91 1019.0
20260506043014 12 269 0.0 0.0 0.03 0.61 0.46 91 1019.0
20260506042515 12 269 0.0 3.2 0.03 0.61 0.46 91 1018.9
20260506042013 12 269 0.0 6.4 0.03 0.61 0.46 91 1018.9
20260506041521 12 269 1.6 6.4 0.03 0.61 0.46 91 1018.8
20260506041011 12 286 0.0 4.8 0.03 0.61 0.46 91 1018.7
20260506040517 12 288 1.6 4.8 0.03 0.61 0.46 91 1018.7
20260506040011 12 241 1.6 4.8 0.03 0.61 0.46 91 1018.6
20260506035514 12 225 1.6 6.4 0.00 0.66 0.43 90 1018.5
20260506035011 12 250 3.2 6.4 0.00 0.66 0.43 90 1018.5
20260506034511 12 278 0.0 4.8 0.00 0.66 0.43 90 1018.5
20260506034013 12 290 1.6 6.4 0.00 0.66 0.43 91 1018.5
20260506033511 12 281 1.6 6.4 0.00 0.66 0.43 90 1018.4
20260506033009 12 292 0.0 4.8 0.00 0.66 0.43 90 1018.2
20260506032508 12 282 0.0 6.4 0.00 0.66 0.43 90 1018.1
20260506032008 12 276 3.2 6.4 0.00 0.66 0.43 90 1017.9
20260506031506 13 248 3.2 6.4 0.00 0.66 0.43 90 1017.8
20260506031006 13 248 0.0 8.0 0.00 0.66 0.43 90 1017.8
20260506030509 13 259 3.2 16.1 0.00 0.66 0.43 90 1017.5
20260506030005 13 248 3.2 16.1 0.00 0.66 0.43 89 1017.6
20260506025507 13 246 4.8 9.7 0.00 0.79 0.43 89 1017.6
20260506025004 13 261 1.6 9.7 0.00 0.79 0.43 89 1017.7
20260506024504 13 268 6.4 14.5 0.00 0.79 0.43 88 1017.6
20260506024106 13 269 4.8 17.7 0.00 0.79 0.43 88 1017.5
20260506023502 13 255 8.0 17.7 0.00 0.79 0.43 87 1017.4
20260506023002 13 198 9.7 16.1 0.00 0.79 0.43 87 1017.4
20260506022502 13 207 6.4 17.7 0.00 0.79 0.43 87 1017.5
20260506022004 13 254 11.3 19.3 0.00 0.79 0.43 87 1017.4
20260506021501 13 272 8.0 19.3 0.00 0.79 0.43 87 1017.4
20260506021001 14 227 11.3 19.3 0.00 0.79 0.43 87 1017.3
20260506020600 13 188 8.0 20.9 0.00 0.79 0.43 87 1017.2
20260506020100 13 267 12.9 27.4 0.00 0.79 0.43 86 1017.2
20260506015559 14 231 14.5 25.7 0.00 0.91 0.43 86 1017.1
20260506015059 14 269 9.7 25.7 0.00 0.91 0.43 85 1017.1
20260506014559 14 248 12.9 25.7 0.00 0.91 0.43 85 1017.0
20260506014101 14 225 9.7 24.1 0.00 0.91 0.43 85 1017.0
20260506013558 14 224 9.7 20.9 0.00 0.91 0.43 84 1017.0
20260506013104 15 283 11.3 20.9 0.00 0.91 0.43 84 1016.9
20260506012600 15 248 9.7 19.3 0.00 0.91 0.43 84 1016.9
20260506012058 15 214 11.3 19.3 0.00 0.91 0.43 84 1016.9
20260506011605 15 209 6.4 19.3 0.00 0.91 0.43 83 1016.9
20260506011056 15 252 12.9 19.3 0.00 0.91 0.43 82 1016.9
20260506010557 15 157 9.7 22.5 0.00 0.91 0.43 84 1016.9
20260506010057 15 225 9.7 22.5 0.00 0.91 0.43 83 1016.8
20260506005555 15 220 12.9 19.3 0.00 0.97 0.43 83 1016.9
20260506005056 15 243 11.3 20.9 0.00 0.97 0.43 83 1016.9
20260506004559 15 209 8.0 19.3 0.00 0.97 0.43 82 1016.9
20260506004055 16 294 4.8 24.1 0.00 0.97 0.43 83 1016.8
20260506003555 15 240 8.0 24.1 0.00 0.97 0.43 82 1016.7
20260506003054 16 239 11.3 25.7 0.00 0.97 0.43 81 1016.6
20260506002553 16 248 12.9 25.7 0.00 0.97 0.43 80 1016.8
20260506002053 16 255 9.7 22.5 0.00 0.97 0.43 82 1016.6
20260506001557 16 250 9.7 25.7 0.00 0.97 0.43 82 1016.6
20260506001155 16 289 12.9 25.7 0.00 0.97 0.43 81 1016.5
20260506000554 16 259 9.7 19.3 0.00 0.97 0.43 82 1016.5
20260506000059 16 213 11.3 22.5 0.00 0.97 0.43 83 1016.5
20260505235551 16 268 14.5 22.5 0.00 1.02 0.43 82 1016.5
20260505235052 16 244 9.7 17.7 0.00 1.02 0.43 83 1016.5
20260505234551 16 256 11.3 20.9 0.00 1.02 0.43 82 1016.6
20260505234052 16 236 6.4 20.9 0.00 1.02 0.43 83 1016.5
20260505233551 16 236 8.0 19.3 0.00 1.02 0.43 83 1016.6
20260505233054 16 246 6.4 20.9 0.00 1.02 0.43 84 1016.5
20260505232550 16 184 11.3 20.9 0.00 1.02 0.43 83 1016.5
20260505232054 16 232 11.3 19.3 0.00 1.02 0.43 83 1016.5
20260505231550 16 238 12.9 19.3 0.00 1.02 0.43 83 1016.5
20260505231051 16 217 12.9 22.5 0.00 1.02 0.43 83 1016.4
20260505230556 16 238 12.9 22.5 0.00 1.02 0.43 82 1016.5
20260505230113 16 271 8.0 20.9 0.03 1.02 0.43 83 1016.4
20260505225549 16 234 9.7 20.9 0.03 1.02 0.43 83 1016.4
20260505225051 16 213 6.4 19.3 0.03 1.02 0.43 84 1016.4
20260505224549 16 219 11.3 19.3 0.03 1.02 0.43 82 1016.5
20260505224049 16 211 9.7 17.7 0.03 1.02 0.43 82 1016.5
20260505223548 16 234 9.7 20.9 0.03 1.02 0.43 82 1016.5
20260505223048 17 223 9.7 24.1 0.03 1.02 0.43 82 1016.5
20260505222547 16 242 9.7 22.5 0.03 1.02 0.43 83 1016.5
20260505222050 16 192 8.0 19.3 0.03 1.02 0.43 82 1016.6
20260505221555 16 257 8.0 14.5 0.03 1.02 0.43 82 1016.6
20260505221047 17 248 9.7 17.7 0.03 1.02 0.43 81 1016.6
20260505220547 17 243 6.4 17.7 0.03 1.02 0.43 82 1016.6
20260505220054 17 296 6.4 17.7 0.00 0.99 0.41 81 1016.6
20260505215545 17 256 4.8 14.5 0.00 0.99 0.41 81 1016.7
20260505215045 17 259 6.4 16.1 0.00 0.99 0.41 82 1016.6
20260505214545 17 209 9.7 16.1 0.00 0.99 0.41 81 1016.6
20260505214044 17 281 4.8 16.1 0.00 0.99 0.41 83 1016.7
20260505213543 17 296 6.4 12.9 0.00 0.99 0.41 83 1016.8
20260505213042 17 269 6.4 14.5 0.00 0.99 0.41 83 1016.9
20260505212544 17 262 6.4 14.5 0.00 0.99 0.41 83 1016.8
20260505212041 17 200 4.8 12.9 0.00 0.99 0.41 84 1016.9
20260505211547 17 290 8.0 12.9 0.00 0.99 0.41 83 1017.1
20260505211040 17 218 4.8 12.9 0.00 0.99 0.41 84 1017.0
20260505210539 16 193 6.4 12.9 0.00 0.99 0.41 83 1017.0
20260505210038 16 269 6.4 14.5 0.00 0.99 0.41 84 1017.1
20260505205538 16 250 4.8 16.1 0.00 0.99 0.41 83 1017.0
20260505205038 16 230 8.0 16.1 0.00 0.99 0.41 83 1017.0
20260505204538 16 242 9.7 14.5 0.00 0.99 0.41 83 1017.0
20260505204036 16 197 4.8 12.9 0.00 0.99 0.41 85 1017.0
20260505203535 16 218 4.8 14.5 0.00 0.99 0.41 84 1016.9
20260505203035 16 214 8.0 14.5 0.00 0.99 0.41 84 1016.8
20260505202534 16 228 9.7 14.5 0.00 0.99 0.41 84 1017.0
20260505202034 16 223 8.0 14.5 0.00 0.99 0.41 84 1017.1
20260505201534 16 191 6.4 14.5 0.00 0.99 0.41 85 1017.0
20260505201035 16 280 4.8 11.3 0.00 0.99 0.41 85 1017.0
20260505200533 16 286 3.2 9.7 0.00 0.99 0.41 86 1017.1
20260505200039 16 269 3.2 11.3 0.00 0.99 0.41 86 1017.1
20260505195533 16 208 6.4 12.9 0.00 0.99 0.41 85 1017.1
20260505195031 15 246 4.8 12.9 0.00 0.99 0.41 85 1017.1
20260505194531 16 286 4.8 12.9 0.00 0.99 0.41 85 1017.0
20260505194031 15 275 4.8 12.9 0.00 0.99 0.41 85 1017.1